Location: WWIN Observatory
(34.8953°N, 91.9583°W)
Time: 11:43:41
(UTC-05:00)

N. Korean satellite - Pass Details

Date: 21 March 2019
Orbit: 457 x 508 km, 97.2° (Epoch: 22 April)

Event Time Altitude Azimuth Distance (km) Brightness Sun altitude
Rises 06:24:18 0° 31° (NNE) 2,524 10.8 -10.3°
Reaches altitude 10° 06:26:54 10° 52° (NE) 1,651 10.3 -9.7°
Maximum altitude 06:29:18 17° 95° (E) 1,276 10.0 -9.2°
Drops below altitude 10° 06:31:43 10° 138° (SE) 1,662 9.8 -8.7°
Sets 06:34:20 0° 159° (SSE) 2,549 10.4 -8.2°
